Location: Newark
(22.3145°N, 88.6625°E)
Time: 09:17:11
(UTC+00:00)

LightSail 2 - Visible Passes

Search period start: 22 October 2019 00:00
Search period end: 01 November 2019 00:00
Orbit: 707 x 722 km, 24.0° (Epoch: 22 October)

Date Brightness Start Highest point End Pass type
(mag) Time Alt. Az. Time Alt. Az. Time Alt. Az.
22 Oct 5.7 12:30:03 10° W 12:35:03 54° SSW 12:39:00 16° SE visible
22 Oct 7.8 14:16:41 10° WSW 14:18:01 15° WSW 14:18:01 15° WSW visible
23 Oct 6.7 13:18:33 10° W 13:22:49 26° SSW 13:24:18 23° S visible
24 Oct 6.5 12:20:36 10° W 12:25:16 35° SSW 12:29:56 10° SE visible
24 Oct 7.9 14:09:13 10° SW 14:09:42 10° SW 14:09:42 10° SW visible
25 Oct 7.5 13:09:54 10° WSW 13:12:56 16° SSW 13:15:59 10° S visible
26 Oct 7.3 12:11:30 10° WSW 12:15:23 22° SSW 12:19:16 10° SSE visible
28 Oct 7.8 12:03:20 10° SW 12:05:27 12° SSW 12:07:34 10° S visible
